SCP
0 0 0 0 0 0 0 0 0 0 0 0 0 1 1 1 1 1 1 1 0 0 0 0 0 0 0 0 0 1 1 1 0 0 1 1 1 1
0 0 0 0 0 0 0 0 0 0 0 0 0 1 1 1 1 1 1 1 1 0 0 0 0 0 0 0 0 0 1 0 0 0 1 1 1 1
0 0 0 0 0 0 0 0 0 0 0 0 0 0 1 1 1 1 1 1 1 0 0 0 0 0 0 0 0 0 0 0 0 0 0 0 1 1
0 0 0 0 0 0 0 0 0 0 0 0 0 0 0 1 1 1 1 1 1 1 0 0 0 0 0 0 0 0 0 0 0 0 0 0 0 0
0 0 0 0 0 0 0 0 0 0 0 0 0 0 0 0 1 1 1 1 1 0 0 0 0 0 0 0 0 0 0 0 0 0 0 0 0 0
0 0 0 0 0 0 0 0 0 0 0 0 0 0 0 0 1 1 1 1 1 1 1 0 0 0 0 0 0 0 0 0 0 0 0 0 0 0
0 0 0 0 0 0 0 0 0 0 0 0 0 0 0 0 1 1 1 1 1 1 1 1 1 1 1 0 0 0 0 0 0 0 0 0 0 0
0 0 0 0 0 0 0 0 0 0 0 0 0 0 0 0 1 1 1 1 1 2 1 1 1 1 1 1 0 0 0 0 0 0 0 0 0 0
0 0 0 0 0 0 0 0 0 0 0 0 0 0 0 1 1 1 1 1 1 2 2 1 1 2 2 1 0 0 0 0 0 0 0 0 0 0
0 0 0 0 0 0 0 0 0 0 0 0 0 0 0 1 1 1 1 1 1 2 2 1 1 1 1 1 0 0 0 0 0 0 0 0 0 0
0 0 0 0 0 0 0 0 0 0 0 0 0 0 0 0 0 1 1 1 1 2 2 1 1 1 1 0 0 0 0 0 0 0 0 0 0 0
0 0 0 0 0 0 0 0 0 0 0 0 0 0 0 0 0 0 1 1 1 1 1 1 1 0 0 0 0 0 0 0 0 0 0 0 0 0
0 0 0 0 0 0 0 0 0 0 0 1 1 1 1 0 0 0 1 1 1 1 1 1 1 1 0 0 0 0 0 0 0 0 0 0 0 0
0 0 0 0 0 0 0 0 0 0 0 1 1 1 1 1 1 1 1 1 1 1 1 1 1 1 1 0 0 0 0 0 0 0 0 0 0 0
0 0 0 0 0 0 0 0 0 0 0 1 1 1 1 1 1 1 1 1 1 1 1 1 1 1 1 1 0 0 0 0 0 0 0 0 0 0
0 0 0 0 0 0 0 0 0 0 0 1 1 1 1 1 1 1 1 1 1 1 1 1 1 1 1 1 1 0 0 0 0 0 0 0 0 0
0 0 0 0 0 0 0 0 0 0 0 1 1 1 1 1 1 1 1 1 1 1 1 1 1 1 1 1 1 1 0 0 0 0 0 0 0 0
0 0 0 0 0 0 0 0 0 0 0 1 1 0 1 1 1 1 1 1 1 1 1 1 1 1 1 1 1 1 0 0 0 0 0 0 0 0
0 0 0 0 0 0 0 0 0 0 0 0 0 0 0 1 1 1 1 1 1 1 1 1 1 1 0 0 0 0 0 0 0 0 0 0 0 0
0 0 0 0 0 0 0 0 0 0 0 0 0 0 0 1 1 1 1 1 1 1 1 1 1 1 1 0 0 0 0 0 0 0 0 0 0 0
0 0 0 0 0 0 0 0 0 0 0 0 0 0 1 1 1 1 1 1 1 1 1 1 1 1 1 1 0 0 0 0 0 0 0 0 0 0
0 0 0 0 0 0 0 0 0 0 0 0 0 0 1 1 1 1 1 1 1 1 1 1 1 1 1 1 0 0 0 0 0 0 0 0 0 0
0 0 0 0 0 0 0 0 0 0 0 0 0 0 1 1 1 1 1 1 1 1 1 1 1 1 1 1 0 0 0 0 0 0 0 0 0 0
Wind_Speed
10 9 9 8 8 8 8 9 10 10 9 5 3 2 3 4 3 5 7 10 13 14 15 17 18 19 20 22 23 23 22 22 21 21 21 21 21 22
8 9 9 9 8 8 8 9 9 10 10 8 5 5 5 7 5 5 6 8 10 12 14 15 17 19 20 21 21 22 22 22 21 21 20 20 19 20
10 10 10 10 9 9 9 9 9 9 11 10 7 5 6 7 7 5 5 6 6 10 12 14 14 16 18 20 21 21 21 21 21 20 20 20 19 19
11 11 11 10 11 10 10 10 10 9 11 12 9 8 7 7 7 6 5 4 4 6 9 11 11 13 15 17 19 19 20 20 20 19 19 19 18 18
12 12 12 12 12 11 11 11 10 10 10 11 10 8 7 6 6 6 5 3 3 4 7 8 9 11 12 14 16 17 18 19 19 19 18 18 17 17
12 12 12 13 13 12 11 12 11 11 11 11 11 9 8 7 6 6 5 4 3 3 3 3 5 8 10 12 14 15 17 17 18 18 17 17 16 16
12 12 13 12 12 11 11 11 11 10 10 10 10 10 9 7 6 5 5 4 4 4 4 3 4 4 6 9 11 13 15 16 16 16 16 16 15 14
13 12 12 13 14 16 17 17 16 14 13 11 10 10 9 9 7 6 5 4 4 5 4 3 3 2 2 4 7 11 13 14 14 14 15 15 14 14
13 12 11 11 10 13 15 19 20 21 19 16 15 13 11 9 9 9 7 6 5 4 5 3 3 2 2 3 6 8 11 12 13 14 14 14 14 13
14 14 13 13 12 11 12 13 14 15 17 17 16 15 14 11 9 10 8 6 5 4 5 4 3 3 2 3 4 6 8 11 12 13 14 14 14 13
13 13 13 13 10 8 12 14 14 13 13 14 14 13 12 9 8 8 9 7 6 4 4 3 4 3 2 2 3 5 7 9 11 13 14 15 15 14
11 11 12 13 9 7 12 13 14 13 13 12 14 16 16 16 14 13 12 9 7 5 5 5 5 4 4 2 2 2 4 7 10 12 14 16 16 11
10 9 8 9 11 11 12 13 13 12 12 12 12 12 13 13 14 15 14 11 8 6 6 6 5 5 5 4 2 2 3 4 5 7 11 13 11 9
11 10 7 4 8 10 11 12 12 11 11 11 11 11 11 12 12 13 14 13 10 7 7 8 6 7 6 6 5 3 3 4 5 6 7 8 7 8
11 10 9 7 8 11 16 16 13 11 11 12 12 11 11 11 10 10 11 11 11 9 8 9 6 7 7 7 8 7 5 3 5 7 7 7 7 8
11 10 13 15 14 13 10 11 12 11 11 12 12 11 10 10 10 10 10 10 9 7 7 8 7 8 6 7 9 9 8 7 6 7 7 7 7 7
8 9 10 9 9 9 9 9 9 10 11 11 11 10 10 10 10 10 10 9 10 9 7 5 3 3 2 4 7 9 10 8 8 8 7 7 6 7
7 10 10 9 10 9 9 9 9 9 10 10 10 10 10 10 10 10 10 10 10 9 9 7 6 4 3 3 0 8 9 9 9 9 8 8 8 7
8 10 10 10 9 9 8 8 8 8 8 9 10 10 10 10 10 10 10 10 10 10 9 9 9 8 8 7 2 2 7 10 10 9 8 7 8 8
9 10 10 9 9 8 8 8 8 8 8 9 9 9 10 10 10 10 11 12 11 10 9 9 10 10 9 8 7 5 6 10 11 11 8 5 6 9
8 9 9 9 9 8 8 7 8 8 8 8 8 9 9 9 10 10 10 12 11 10 11 11 9 9 6 6 7 7 7 5 4 8 11 9 8 9
8 8 9 9 8 8 7 7 7 8 8 8 8 8 8 9 10 11 10 11 11 11 11 9 10 9 7 8 9 11 10 8 5 7 7 3 6 10
7 8 8 8 8 7 7 8 9 8 8 8 8 8 9 9 9 9 10 10 10 10 10 10 9 8 8 8 8 9 13 12 8 8 5 5 6 10
Wind_Direction
271 263 260 272 269 270 271 272 278 283 282 277 260 282 316 308 295 264 245 222 217 215 217 218 219 218 215 213 211 211 212 213 213 215 215 214 215 218
268 276 276 274 276 272 268 267 265 270 277 280 274 283 306 304 289 278 259 226 218 215 216 218 219 219 217 213 210 209 207 208 209 210 210 209 211 214
266 263 261 268 274 276 269 264 262 262 268 273 269 265 273 286 296 289 266 238 218 212 217 218 218 218 216 212 208 206 205 205 206 206 208 208 209 210
265 265 265 262 259 264 270 268 266 267 269 274 277 271 263 269 278 283 272 243 227 202 210 214 216 217 213 209 205 203 203 203 203 203 204 205 206 207
266 264 264 263 263 262 262 265 266 260 258 265 267 265 263 260 269 268 259 237 224 198 198 205 213 216 211 206 203 201 201 200 200 200 201 202 202 203
265 264 263 261 259 259 258 257 262 266 263 261 263 261 253 248 252 256 246 223 210 199 182 179 193 206 207 202 200 199 199 198 197 197 196 196 197 199
267 262 259 258 265 266 269 266 260 256 259 257 256 256 251 243 245 248 251 234 213 202 183 175 177 189 192 191 194 195 192 192 193 192 190 191 192 194
271 268 264 249 242 238 247 259 267 268 267 269 264 260 261 256 249 252 253 239 222 197 189 175 171 165 171 175 174 183 186 186 187 187 186 185 184 183
271 270 268 265 249 249 237 233 241 247 254 264 270 271 270 260 260 252 241 243 246 194 180 168 153 123 64 84 141 171 180 182 182 181 179 177 174 172
266 265 265 267 262 259 261 253 246 239 233 235 246 258 263 273 270 263 264 251 250 220 189 169 151 123 88 74 102 159 173 175 173 170 167 163 159 156
265 263 263 263 258 240 255 260 259 256 245 240 249 256 274 288 286 272 252 238 230 210 190 162 139 122 113 86 74 119 153 162 162 160 156 152 146 141
268 262 250 246 259 236 251 256 256 255 256 244 229 236 244 245 236 245 254 246 230 208 183 164 147 144 133 104 85 107 122 137 147 149 148 147 150 149
277 274 269 208 218 227 241 255 260 269 265 257 251 240 233 230 228 222 228 243 237 218 178 169 162 166 144 134 121 95 119 131 128 132 142 149 160 159
276 275 277 190 214 228 237 248 251 255 256 254 247 241 236 229 223 222 220 226 236 230 189 180 174 174 157 148 143 131 112 126 130 131 134 129 116 114
270 282 291 273 254 243 237 238 238 237 239 242 242 238 236 234 231 221 219 220 225 222 198 195 192 178 179 164 152 149 139 132 136 138 143 150 149 148
256 261 242 242 245 258 253 226 227 233 234 237 239 238 235 231 224 221 215 206 207 203 199 194 195 186 187 175 161 160 154 150 153 152 150 152 162 169
308 283 272 263 249 241 240 237 234 227 227 234 237 236 230 228 223 216 216 211 206 194 180 172 159 147 152 171 170 164 156 150 154 154 155 154 165 172
270 265 265 263 260 256 248 241 234 231 229 229 230 231 228 224 221 215 213 211 208 198 182 168 154 134 108 41 115 165 158 154 154 161 166 160 165 175
241 256 261 262 261 258 253 244 238 232 228 228 229 228 227 225 220 215 212 211 207 198 183 172 174 171 171 168 165 204 162 153 154 163 175 173 168 166
236 251 260 264 263 261 258 248 238 230 224 225 225 224 224 222 219 215 211 210 206 195 184 180 187 186 185 169 155 164 173 162 163 164 167 156 115 103
251 252 257 259 261 259 256 250 243 235 226 221 222 219 220 220 220 217 212 205 206 194 188 187 186 168 144 136 143 150 157 153 151 164 160 154 151 162
268 264 263 260 256 255 252 246 241 236 231 225 221 217 217 220 221 220 215 205 201 196 188 174 163 164 166 171 165 154 150 150 107 96 96 97 172 180
275 271 268 264 257 250 246 243 241 236 229 223 217 212 212 216 222 220 215 208 201 193 177 165 164 172 176 170 158 152 154 156 156 157 146 55 64 90